EWG867 EDDM-LFMN

Flight info

Callsign EWG867
Flight time 1h 20m
Altitude 35000
Route TURBU Y107 TOBSO DCT BAKOR DCT RENTA DCT ATPED DCT LUSIL DCT EVANO DCT ENOBA Z185 ASBOP/N0382F190 Z185 BORDI
Aircraft B738/M-SDE2E3FGHIRWXY/LB1

Departure

Time 2026-05-04 13:35
Airport Munich Airport (EDDM)

Arrival

Time 2026-05-04 14:55
Airport Nice-Côte d'Azur Airport (LFMN)
Time Latitude Longitude Altitude Speed Heading
2026-05-04 13:28 48.35567 11.79436 1475 ft 0 kts 170°
2026-05-04 13:28 48.35544 11.79442 1475 ft 4 kts 170°
2026-05-04 13:28 48.35514 11.79448 1476 ft 5 kts 177°
2026-05-04 13:29 48.35444 11.79455 1476 ft 15 kts 175°
2026-05-04 13:29 48.35299 11.79482 1477 ft 26 kts 173°
2026-05-04 13:29 48.35154 11.79505 1477 ft 18 kts 172°
2026-05-04 13:29 48.35031 11.79528 1477 ft 17 kts 176°
2026-05-04 13:30 48.34917 11.79545 1478 ft 15 kts 172°
2026-05-04 13:30 48.34813 11.79558 1478 ft 13 kts 205°
2026-05-04 13:30 48.34781 11.79439 1478 ft 12 kts 263°
2026-05-04 13:30 48.34771 11.79304 1479 ft 14 kts 263°
2026-05-04 13:31 48.34758 11.79137 1480 ft 17 kts 264°
2026-05-04 13:31 48.34743 11.78932 1481 ft 21 kts 263°
2026-05-04 13:31 48.34724 11.78699 1482 ft 24 kts 264°
2026-05-04 13:31 48.34705 11.78428 1483 ft 27 kts 264°
2026-05-04 13:32 48.34680 11.78122 1483 ft 30 kts 262°
2026-05-04 13:32 48.34654 11.77787 1484 ft 33 kts 265°
2026-05-04 13:32 48.34629 11.77449 1485 ft 31 kts 264°
2026-05-04 13:32 48.34605 11.77136 1486 ft 29 kts 262°
2026-05-04 13:33 48.34581 11.76841 1486 ft 26 kts 263°
2026-05-04 13:33 48.34554 11.76701 1487 ft 9 kts 208°
2026-05-04 13:33 48.34495 11.76698 1487 ft 7 kts 173°
2026-05-04 13:33 48.34428 11.76724 1487 ft 11 kts 147°
2026-05-04 13:34 48.34381 11.76828 1487 ft 14 kts 114°
2026-05-04 13:34 48.34333 11.76998 1487 ft 20 kts 113°
2026-05-04 13:34 48.34264 11.77212 1487 ft 23 kts 126°
2026-05-04 13:34 48.34240 11.77387 1486 ft 17 kts 81°
2026-05-04 13:35 48.34277 11.77778 1485 ft 73 kts 79°
2026-05-04 13:35 48.34489 11.80617 1734 ft 174 kts 83°
2026-05-04 13:35 48.34629 11.82435 2545 ft 176 kts 81°
2026-05-04 13:36 48.34777 11.84181 3387 ft 170 kts 82°
2026-05-04 13:36 48.34910 11.86049 3831 ft 184 kts 83°
2026-05-04 13:36 48.35056 11.88031 4295 ft 197 kts 83°
2026-05-04 13:36 48.35225 11.90205 4692 ft 216 kts 83°
2026-05-04 13:37 48.35394 11.92563 5156 ft 234 kts 86°
2026-05-04 13:37 48.35220 11.95046 5700 ft 247 kts 110°
2026-05-04 13:37 48.34225 11.97174 6483 ft 251 kts 138°
2026-05-04 13:37 48.32858 11.98774 7296 ft 252 kts 143°
2026-05-04 13:38 48.31453 12.00367 8081 ft 254 kts 143°
2026-05-04 13:38 48.30015 12.01910 8870 ft 254 kts 150°
2026-05-04 13:38 48.28336 12.02833 9557 ft 258 kts 174°
2026-05-04 13:38 48.26490 12.02837 10014 ft 272 kts 184°
2026-05-04 13:39 48.24564 12.02614 10617 ft 281 kts 184°
2026-05-04 13:39 48.22573 12.02413 11358 ft 285 kts 184°
2026-05-04 13:39 48.20577 12.02258 12096 ft 289 kts 183°
2026-05-04 13:39 48.18549 12.02130 12825 ft 293 kts 182°
2026-05-04 13:40 48.16479 12.02010 13563 ft 297 kts 182°
2026-05-04 13:40 48.14405 12.01892 14312 ft 300 kts 183°
2026-05-04 13:40 48.12309 12.01773 15057 ft 303 kts 183°
2026-05-04 13:40 48.10186 12.01650 15780 ft 307 kts 183°
2026-05-04 13:41 48.08016 12.01470 16523 ft 309 kts 186°
2026-05-04 13:41 48.05861 12.01009 17151 ft 314 kts 193°
2026-05-04 13:41 48.03699 12.00221 17509 ft 328 kts 196°
2026-05-04 13:42 47.99100 11.98190 18192 ft 358 kts 198°
2026-05-04 13:42 47.96646 11.97107 18514 ft 372 kts 197°
2026-05-04 13:42 47.94135 11.96044 18877 ft 385 kts 196°
2026-05-04 13:42 47.91463 11.95167 19559 ft 390 kts 191°
2026-05-04 13:43 47.88741 11.94721 20208 ft 394 kts 185°
2026-05-04 13:43 47.86004 11.94551 20826 ft 399 kts 183°
2026-05-04 13:43 47.83278 11.94501 21442 ft 403 kts 182°
2026-05-04 13:43 47.80449 11.94491 22039 ft 407 kts 182°
2026-05-04 13:44 47.77591 11.94485 22629 ft 411 kts 182°
2026-05-04 13:44 47.74690 11.94470 23230 ft 415 kts 182°
2026-05-04 13:44 47.71815 11.94444 23797 ft 418 kts 182°
2026-05-04 13:44 47.68869 11.94410 24374 ft 422 kts 182°
2026-05-04 13:45 47.65928 11.94370 24960 ft 425 kts 182°
2026-05-04 13:45 47.62913 11.94324 25463 ft 429 kts 182°
2026-05-04 13:45 47.59906 11.94274 25980 ft 432 kts 182°
2026-05-04 13:45 47.56894 11.94223 26505 ft 435 kts 182°
2026-05-04 13:46 47.53853 11.94170 27021 ft 438 kts 182°
2026-05-04 13:46 47.50792 11.94118 27500 ft 442 kts 182°
2026-05-04 13:46 47.47684 11.94066 27995 ft 445 kts 182°
2026-05-04 13:46 47.44542 11.94011 28455 ft 448 kts 183°
2026-05-04 13:47 47.41416 11.93811 28915 ft 451 kts 186°
2026-05-04 13:47 47.38259 11.93346 29399 ft 453 kts 188°
2026-05-04 13:47 47.35086 11.92727 29859 ft 455 kts 190°
2026-05-04 13:47 47.31966 11.92055 30542 ft 452 kts 190°
2026-05-04 13:48 47.28864 11.91377 31166 ft 451 kts 190°
2026-05-04 13:48 47.25730 11.90695 31619 ft 453 kts 190°
2026-05-04 13:48 47.22586 11.90020 32414 ft 447 kts 190°
2026-05-04 13:48 47.19522 11.89375 33295 ft 438 kts 190°
2026-05-04 13:49 47.16541 11.88758 33998 ft 433 kts 190°
2026-05-04 13:49 47.13554 11.88148 34617 ft 429 kts 190°
2026-05-04 13:49 47.10589 11.87545 35057 ft 427 kts 190°
2026-05-04 13:49 47.07597 11.86940 35134 ft 433 kts 190°
2026-05-04 13:50 47.01555 11.85736 35144 ft 436 kts 190°
2026-05-04 13:50 46.95605 11.84137 35153 ft 433 kts 194°
2026-05-04 13:51 46.89753 11.82180 35155 ft 435 kts 195°
2026-05-04 13:51 46.83772 11.80174 35151 ft 435 kts 194°
2026-05-04 13:52 46.74897 11.77288 35136 ft 435 kts 194°
2026-05-04 13:53 46.68946 11.75324 35131 ft 434 kts 197°
2026-05-04 13:53 46.63460 11.71833 35141 ft 431 kts 216°
2026-05-04 13:54 46.59079 11.65912 35139 ft 429 kts 230°
2026-05-04 13:54 46.57267 11.62441 35135 ft 429 kts 236°
2026-05-04 13:55 46.53037 11.51003 35127 ft 429 kts 244°
2026-05-04 13:55 46.49166 11.39381 35074 ft 428 kts 244°
2026-05-04 13:56 46.46521 11.31647 35060 ft 430 kts 243°
2026-05-04 13:57 46.42478 11.20036 35062 ft 429 kts 243°
2026-05-04 13:58 46.37044 11.04625 35124 ft 428 kts 243°
2026-05-04 13:58 46.32949 10.93080 35129 ft 427 kts 243°
2026-05-04 13:59 46.30248 10.85493 35121 ft 427 kts 243°
2026-05-04 14:00 46.26277 10.74123 35117 ft 427 kts 243°
2026-05-04 14:00 46.22283 10.62622 35109 ft 427 kts 243°
2026-05-04 14:01 46.19618 10.54996 35106 ft 425 kts 244°
2026-05-04 14:02 46.15613 10.43585 35124 ft 425 kts 244°
2026-05-04 14:02 46.12951 10.36034 35119 ft 424 kts 243°
2026-05-04 14:03 46.10270 10.28440 35114 ft 424 kts 243°
2026-05-04 14:03 46.07583 10.20866 35117 ft 423 kts 243°
2026-05-04 14:04 46.03380 10.09734 35133 ft 423 kts 238°
2026-05-04 14:04 45.99987 10.02818 35123 ft 424 kts 234°
2026-05-04 14:05 45.94717 9.92721 35137 ft 420 kts 234°
2026-05-04 14:06 45.91215 9.85984 35132 ft 421 kts 234°
2026-05-04 14:06 45.87734 9.79245 35118 ft 421 kts 234°
2026-05-04 14:07 45.84255 9.72497 35096 ft 420 kts 234°
2026-05-04 14:07 45.80786 9.65770 35093 ft 420 kts 234°
2026-05-04 14:08 45.77288 9.58997 35089 ft 420 kts 234°
2026-05-04 14:08 45.73821 9.52301 35088 ft 419 kts 234°
2026-05-04 14:09 45.68636 9.42318 35080 ft 419 kts 234°
2026-05-04 14:10 45.63443 9.32363 35076 ft 417 kts 234°
2026-05-04 14:10 45.59946 9.25680 35073 ft 418 kts 234°
2026-05-04 14:11 45.56499 9.19109 35072 ft 417 kts 234°
2026-05-04 14:11 45.51304 9.09232 35071 ft 414 kts 234°
2026-05-04 14:12 45.48603 9.04110 35068 ft 414 kts 234°
2026-05-04 14:13 45.43442 8.94349 35074 ft 414 kts 234°
2026-05-04 14:13 45.39881 8.87636 35076 ft 414 kts 234°
2026-05-04 14:14 45.37186 8.82597 35072 ft 414 kts 232°
2026-05-04 14:14 45.31829 8.75741 35076 ft 421 kts 211°
2026-05-04 14:14 45.29189 8.74043 35071 ft 422 kts 204°
2026-05-04 14:15 45.17830 8.68914 35064 ft 424 kts 200°
2026-05-04 14:16 45.09469 8.65282 35065 ft 423 kts 201°
2026-05-04 14:17 45.01018 8.61571 35068 ft 422 kts 201°
2026-05-04 14:18 44.92562 8.57852 35068 ft 424 kts 201°
2026-05-04 14:19 44.81389 8.52953 35071 ft 424 kts 201°
2026-05-04 14:19 44.75725 8.50476 35071 ft 422 kts 202°
2026-05-04 14:20 44.70082 8.48012 35072 ft 423 kts 202°
2026-05-04 14:20 44.64438 8.45553 35022 ft 421 kts 202°
2026-05-04 14:21 44.58872 8.43137 34108 ft 414 kts 201°
2026-05-04 14:21 44.56104 8.41936 33427 ft 414 kts 201°
2026-05-04 14:21 44.53397 8.40760 32715 ft 415 kts 201°
2026-05-04 14:21 44.50610 8.39551 31956 ft 416 kts 201°
2026-05-04 14:22 44.47823 8.38344 31288 ft 415 kts 201°
2026-05-04 14:22 44.45077 8.37155 30762 ft 410 kts 201°
2026-05-04 14:22 44.42349 8.35978 30196 ft 407 kts 201°
2026-05-04 14:22 44.39632 8.34806 29615 ft 404 kts 200°
2026-05-04 14:23 44.34283 8.32371 28449 ft 397 kts 205°
2026-05-04 14:23 44.31833 8.30696 27882 ft 390 kts 213°
2026-05-04 14:23 44.29666 8.28476 27325 ft 385 kts 223°
2026-05-04 14:24 44.27786 8.25840 26762 ft 381 kts 230°
2026-05-04 14:24 44.26109 8.22947 26194 ft 378 kts 234°
2026-05-04 14:24 44.24589 8.20011 25645 ft 376 kts 236°
2026-05-04 14:24 44.23095 8.16981 25080 ft 374 kts 236°
2026-05-04 14:25 44.21650 8.14011 24525 ft 372 kts 236°
2026-05-04 14:25 44.18740 8.08056 23398 ft 369 kts 236°
2026-05-04 14:25 44.17305 8.05145 22844 ft 367 kts 235°
2026-05-04 14:26 44.15868 8.02247 22294 ft 365 kts 235°
2026-05-04 14:26 44.14431 7.99361 21750 ft 363 kts 235°
2026-05-04 14:26 44.12993 7.96482 21209 ft 362 kts 235°
2026-05-04 14:26 44.11539 7.93579 20630 ft 361 kts 235°
2026-05-04 14:27 44.10110 7.90726 20091 ft 359 kts 235°
2026-05-04 14:27 44.08680 7.87870 19527 ft 357 kts 235°
2026-05-04 14:27 44.07259 7.85034 18979 ft 356 kts 235°
2026-05-04 14:27 44.05864 7.82251 18425 ft 354 kts 234°
2026-05-04 14:28 44.04503 7.79532 17903 ft 352 kts 234°
2026-05-04 14:28 44.03099 7.76728 17360 ft 350 kts 234°
2026-05-04 14:28 44.01733 7.74005 17103 ft 342 kts 234°
2026-05-04 14:28 44.00378 7.71303 17083 ft 344 kts 234°
2026-05-04 14:29 43.97620 7.65816 17053 ft 345 kts 234°
2026-05-04 14:29 43.94870 7.60356 17062 ft 346 kts 234°
2026-05-04 14:30 43.93472 7.57589 17053 ft 347 kts 234°
2026-05-04 14:30 43.92088 7.54856 17045 ft 347 kts 234°
2026-05-04 14:30 43.89358 7.49471 17054 ft 346 kts 234°
2026-05-04 14:31 43.87881 7.46774 17051 ft 347 kts 229°
2026-05-04 14:31 43.83786 7.43321 17055 ft 348 kts 193°
2026-05-04 14:32 43.78962 7.43443 17038 ft 352 kts 168°
2026-05-04 14:32 43.76738 7.44814 17037 ft 357 kts 148°
2026-05-04 14:32 43.74959 7.47258 17024 ft 362 kts 127°
2026-05-04 14:32 43.73913 7.50453 17026 ft 369 kts 107°
2026-05-04 14:33 43.73689 7.54007 17045 ft 374 kts 91°
2026-05-04 14:33 43.73947 7.57565 17036 ft 375 kts 82°
2026-05-04 14:33 43.74565 7.61134 17038 ft 376 kts 74°
2026-05-04 14:33 43.75500 7.64509 17034 ft 377 kts 67°
2026-05-04 14:34 43.76643 7.67786 17041 ft 379 kts 64°
2026-05-04 14:34 43.77857 7.71035 17036 ft 378 kts 64°
2026-05-04 14:34 43.79063 7.74217 17052 ft 380 kts 63°
2026-05-04 14:34 43.80293 7.77459 17054 ft 379 kts 63°
2026-05-04 14:35 43.81515 7.80686 17054 ft 379 kts 63°
2026-05-04 14:35 43.82740 7.83922 17057 ft 380 kts 63°
2026-05-04 14:35 43.83955 7.87135 17066 ft 379 kts 63°
2026-05-04 14:35 43.85145 7.90422 17057 ft 378 kts 67°
2026-05-04 14:36 43.85966 7.93854 17065 ft 377 kts 83°
2026-05-04 14:36 43.85898 7.97434 17064 ft 372 kts 105°
2026-05-04 14:36 43.84971 8.00692 17061 ft 366 kts 123°
2026-05-04 14:36 43.83429 8.03510 17062 ft 362 kts 135°
2026-05-04 14:37 43.81602 8.05868 17059 ft 360 kts 146°
2026-05-04 14:37 43.79429 8.07429 17061 ft 355 kts 165°
2026-05-04 14:37 43.77005 8.07898 17046 ft 350 kts 182°
2026-05-04 14:37 43.74604 8.07474 17043 ft 350 kts 194°
2026-05-04 14:38 43.72288 8.06475 17043 ft 347 kts 204°
2026-05-04 14:38 43.70128 8.05005 17043 ft 348 kts 210°
2026-05-04 14:38 43.68039 8.03319 17039 ft 346 kts 212°
2026-05-04 14:38 43.65957 8.01577 17034 ft 346 kts 212°
2026-05-04 14:39 43.63901 7.99874 16941 ft 343 kts 211°
2026-05-04 14:39 43.61854 7.98214 16488 ft 341 kts 211°
2026-05-04 14:39 43.59804 7.96586 15952 ft 340 kts 210°
2026-05-04 14:40 43.55723 7.93396 14913 ft 337 kts 210°
2026-05-04 14:40 43.53703 7.91827 14517 ft 331 kts 210°
2026-05-04 14:40 43.51723 7.90288 14330 ft 320 kts 210°
2026-05-04 14:40 43.49832 7.88818 14218 ft 307 kts 210°
2026-05-04 14:41 43.48018 7.87407 14108 ft 295 kts 210°
2026-05-04 14:41 43.46273 7.86050 13994 ft 283 kts 210°
2026-05-04 14:41 43.43048 7.83306 13702 ft 264 kts 221°
2026-05-04 14:42 43.41700 7.78836 13101 ft 263 kts 270°
2026-05-04 14:42 43.41854 7.76356 12794 ft 262 kts 273°
2026-05-04 14:42 43.42030 7.73764 12499 ft 280 kts 272°
2026-05-04 14:43 43.42185 7.71074 12187 ft 285 kts 271°
2026-05-04 14:43 43.42327 7.68361 11868 ft 285 kts 272°
2026-05-04 14:43 43.42462 7.65650 11539 ft 284 kts 272°
2026-05-04 14:43 43.42592 7.62950 11236 ft 283 kts 272°
2026-05-04 14:44 43.42736 7.60261 10930 ft 281 kts 272°
2026-05-04 14:44 43.42871 7.57573 10622 ft 282 kts 272°
2026-05-04 14:44 43.43004 7.54902 10309 ft 282 kts 271°
2026-05-04 14:44 43.43135 7.52205 10010 ft 280 kts 272°
2026-05-04 14:45 43.43274 7.49530 9693 ft 280 kts 272°
2026-05-04 14:45 43.43409 7.46866 9394 ft 279 kts 271°
2026-05-04 14:45 43.43533 7.44238 9097 ft 280 kts 272°
2026-05-04 14:45 43.43666 7.41575 8791 ft 279 kts 272°
2026-05-04 14:46 43.43798 7.38926 8483 ft 278 kts 272°
2026-05-04 14:46 43.43928 7.36241 8184 ft 278 kts 272°
2026-05-04 14:46 43.44055 7.33562 7878 ft 275 kts 271°
2026-05-04 14:46 43.44177 7.30970 7581 ft 272 kts 271°
2026-05-04 14:47 43.44294 7.28396 7289 ft 269 kts 271°
2026-05-04 14:47 43.44406 7.25843 6993 ft 266 kts 271°
2026-05-04 14:47 43.44521 7.23349 6711 ft 263 kts 271°
2026-05-04 14:47 43.44641 7.20804 6405 ft 261 kts 272°
2026-05-04 14:48 43.44755 7.18342 6067 ft 261 kts 272°
2026-05-04 14:48 43.44870 7.15863 5692 ft 260 kts 272°
2026-05-04 14:48 43.44984 7.13412 5394 ft 255 kts 272°
2026-05-04 14:48 43.45090 7.10993 5154 ft 247 kts 272°
2026-05-04 14:49 43.45189 7.08681 4996 ft 240 kts 272°
2026-05-04 14:49 43.45289 7.06411 4786 ft 241 kts 274°
2026-05-04 14:49 43.45593 7.04169 4544 ft 240 kts 292°
2026-05-04 14:49 43.46590 7.02360 4335 ft 238 kts 328°
2026-05-04 14:50 43.48091 7.01584 4146 ft 227 kts 355°
2026-05-04 14:50 43.49552 7.01581 3985 ft 214 kts 10°
2026-05-04 14:50 43.50979 7.02042 3746 ft 206 kts 24°
2026-05-04 14:50 43.52208 7.02894 3488 ft 198 kts 37°
2026-05-04 14:51 43.53216 7.04087 3225 ft 181 kts 51°
2026-05-04 14:51 43.53886 7.05451 3013 ft 164 kts 65°
2026-05-04 14:51 43.54451 7.06788 2781 ft 158 kts 57°
2026-05-04 14:51 43.55124 7.07913 2585 ft 145 kts 51°
2026-05-04 14:52 43.55816 7.08942 2374 ft 146 kts 49°
2026-05-04 14:52 43.56530 7.09926 2180 ft 144 kts 47°
2026-05-04 14:52 43.57255 7.10886 1984 ft 144 kts 46°
2026-05-04 14:52 43.57994 7.11845 1786 ft 144 kts 46°
2026-05-04 14:53 43.58720 7.12776 1604 ft 143 kts 45°
2026-05-04 14:53 43.59454 7.13704 1402 ft 139 kts 46°
2026-05-04 14:53 43.60165 7.14600 1211 ft 138 kts 44°
2026-05-04 14:53 43.60960 7.15356 1053 ft 139 kts 36°
2026-05-04 14:54 43.61789 7.16102 850 ft 139 kts 43°
2026-05-04 14:54 43.62474 7.16986 668 ft 132 kts 51°
2026-05-04 14:54 43.63098 7.17954 522 ft 136 kts 54°
2026-05-04 14:54 43.63737 7.18894 313 ft 127 kts 51°
2026-05-04 14:55 43.64373 7.19784 163 ft 133 kts 52°
2026-05-04 14:55 43.64985 7.20664 27 ft 126 kts 47°
2026-05-04 14:55 43.65485 7.21361 23 ft 74 kts 45°
2026-05-04 14:55 43.65649 7.21586 23 ft 19 kts 44°
2026-05-04 14:56 43.65758 7.21693 23 ft 18 kts 26°
2026-05-04 14:56 43.65873 7.21747 24 ft 15 kts 15°
2026-05-04 14:56 43.65967 7.21784 25 ft 12 kts 13°
2026-05-04 14:56 43.66034 7.21806 27 ft 8 kts 15°
2026-05-04 14:57 43.66085 7.21824 28 ft 12 kts 12°
2026-05-04 14:57 43.66166 7.21810 29 ft 10 kts 335°
2026-05-04 14:57 43.66216 7.21756 30 ft 8 kts 314°
2026-05-04 14:57 43.66256 7.21699 31 ft 8 kts 314°
2026-05-04 14:58 43.66294 7.21647 32 ft 7 kts 315°
2026-05-04 14:58 43.66301 7.21638 33 ft 0 kts 315°
2026-05-04 14:58 43.66302 7.21636 33 ft 0 kts 315°
2026-05-04 14:59 43.66315 7.21618 33 ft 6 kts 315°
2026-05-04 14:59 43.66342 7.21582 35 ft 4 kts 316°
2026-05-04 14:59 43.66371 7.21527 36 ft 2 kts 277°
2026-05-04 15:00 43.66371 7.21507 37 ft 1 kts 264°
2026-05-04 15:00 43.66369 7.21493 37 ft 1 kts 257°
2026-05-04 15:00 43.66358 7.21451 38 ft 3 kts 264°
2026-05-04 15:01 43.66375 7.21418 39 ft 1 kts 354°
2026-05-04 15:01 43.66384 7.21417 39 ft 0 kts 357°
2026-05-04 15:01 43.66388 7.21416 39 ft 0 kts 358°
2026-05-04 15:01 43.66396 7.21415 39 ft 1 kts 355°
2026-05-04 15:02 43.66405 7.21413 40 ft 3 kts 353°
2026-05-04 15:02 43.66413 7.21412 40 ft 1 kts 352°
2026-05-04 15:02 43.66419 7.21410 40 ft 0 kts 352°